Wiscasset, ME

8:33 AM EST on February 13, 2016 (GMT -0500)
Wiscasset

Weather History for KIWI - December, 2012

Change the Weather History Date:

Thursday, December 6, 2012

  Actual Average Record
Temperature  
Mean Temperature 29 °F -  
Max Temperature 37 °F 37 °F 64 °F (2001)
Min Temperature 21 °F 21 °F 8 °F (2007)
Degree Days  
Heating Degree Days 36    
Moisture  
Dew Point 15 °F    
Average Humidity 57    
Maximum Humidity 85    
Minimum Humidity 37    
Precipitation  
Precipitation 0.00 in - - ()
Sea Level Pressure  
Sea Level Pressure 30.25 in    
Wind  
Wind Speed 6 mph (NW)    
Max Wind Speed 10 mph    
Max Gust Speed 18 mph    
Visibility 10 miles    
Events      
Averages and records for this station are not official NWS values.
T = Trace of Precipitation, MM = Missing Value Source: NWS Daily Summary

Daily Weather History Graph

Daily Weather History Graph

Search for Another Location

Airport or City:

Trip Planner

Search our weather history database for the weather conditions in past years. The results will help you decide how hot, cold, wet, or windy it might be!

Date:

Astronomy

Dec. 06, 2012 Rise Set
Actual Time 6:59 AM EST 4:00 PM EST
Civil Twilight 6:26 AM EST 4:33 PM EST
Nautical Twilight 5:50 AM EST 5:09 PM EST
Astronomical Twilight 5:15 AM EST 5:44 PM EST
Moon No Moon Rise 11:38 AM EST (12/6)
Length of Visible Light 10h 07m
Length of Day
9h 01m
Waning Gibbous, 49% of the Moon is Illuminated
Dec 6
Waning Gibbous
Dec 13
New
Dec 20
First Quarter
Dec 28
Full
Jan 4
Last Quarter

Hourly Weather History & Observations

Time (EST) Temp. Windchill Dew Point Humidity Pressure Visibility Wind Dir Wind Speed Gust Speed Precip Events Conditions
12:53 AM 33.1 °F 24.9 °F 17.1 °F 52% 30.08 in 10.0 mi NW 10.4 mph 18.4 mph N/A   Overcast
1:53 AM 32.0 °F 25.6 °F 16.0 °F 52% 30.12 in 10.0 mi Variable 6.9 mph - N/A   Overcast
2:53 AM 32.0 °F 26.4 °F 16.0 °F 52% 30.13 in 10.0 mi Variable 5.8 mph - N/A   Mostly Cloudy
3:53 AM 32.0 °F 24.8 °F 16.0 °F 52% 30.15 in 10.0 mi NW 8.1 mph - N/A   Overcast
4:53 AM 30.9 °F 26.2 °F 15.1 °F 52% 30.18 in 10.0 mi Variable 4.6 mph - N/A   Overcast
5:53 AM 30.0 °F 26.5 °F 14.0 °F 51% 30.20 in 10.0 mi Variable 3.5 mph - N/A   Clear
6:53 AM 28.0 °F 22.8 °F 15.1 °F 58% 30.23 in 10.0 mi WNW 4.6 mph - N/A   Clear
7:53 AM 28.9 °F 22.8 °F 14.0 °F 54% 30.25 in 10.0 mi Variable 5.8 mph - N/A   Clear
8:53 AM 30.9 °F 25.2 °F 14.0 °F 50% 30.27 in 10.0 mi Variable 5.8 mph - N/A   Clear
9:53 AM 32.0 °F 24.8 °F 14.0 °F 48% 30.29 in 10.0 mi NW 8.1 mph 16.1 mph N/A   Clear
10:53 AM 34.0 °F 26.6 °F 14.0 °F 44% 30.28 in 10.0 mi NW 9.2 mph - N/A   Clear
11:53 AM 36.0 °F 30.3 °F 14.0 °F 41% 30.25 in 10.0 mi Variable 6.9 mph - N/A   Clear
12:53 PM 37.0 °F 32.4 °F 12.9 °F 37% 30.25 in 10.0 mi Variable 5.8 mph - N/A   Clear
1:53 PM 37.9 °F 33.5 °F 14.0 °F 38% 30.24 in 10.0 mi Variable 5.8 mph - N/A   Clear
2:53 PM 37.0 °F 34.5 °F 14.0 °F 39% 30.26 in 10.0 mi Variable 3.5 mph - N/A   Clear
3:53 PM 35.1 °F - 14.0 °F 42% 30.27 in 10.0 mi Calm Calm - N/A   Clear
4:53 PM 30.9 °F - 16.0 °F 54% 30.29 in 10.0 mi Calm Calm - N/A   Clear
5:53 PM 27.0 °F - 17.1 °F 66% 30.29 in 10.0 mi Calm Calm - N/A   Clear
6:53 PM 26.1 °F - 17.1 °F 69% 30.31 in 10.0 mi Calm Calm - N/A   Clear
7:53 PM 24.1 °F - 18.0 °F 77% 30.31 in 10.0 mi Calm Calm - N/A   Clear
8:53 PM 23.0 °F - 18.0 °F 81% 30.31 in 10.0 mi Calm Calm - N/A   Clear
9:53 PM 21.9 °F - 17.1 °F 82% 30.32 in 10.0 mi Calm Calm - N/A   Clear
10:53 PM 21.9 °F - 17.1 °F 82% 30.32 in 10.0 mi Calm Calm - N/A   Clear
11:53 PM 21.0 °F - 17.1 °F 85% 30.30 in 10.0 mi Calm Calm - N/A   Clear